Regional Weather Roundup
Issued by NWS

Home | Current Version | Previous Version | Text Only | Print | Product List | Glossary Off
Versions: 1 2 3 4 5 6 7 8 9 10 11 12 13 14 15 16 17 18 19 20 21 22 23 24 25 26 27 28

000
ASUS42 KTBW 281017
RWRFL
FLORIDA REGIONAL WEATHER ROUNDUP
NATIONAL WEATHER SERVICE TAMPA BAY RUSKIN FL
600 AM EDT SAT MAY 28 2016

NOTE: "FAIR" INDICATES FEW OR NO CLOUDS BELOW 12,000 FEET WITH NO
SIGNIFICANT WEATHER AND/OR OBSTRUCTIONS TO VISIBILITY.

FLZ001>010-012>015-112-114-115-281100-
PANHANDLE FLORIDA

CITY           SKY/WX    TMP DP  RH WIND       PRES   REMARKS
PENSACOLA      MOCLDY    73  67  81 E6        29.99F
MILTON NAS     CLOUDY    67  67 100 CALM      30.01
CRESTVIEW      CLOUDY    68  65  90 NE3       30.03S
DUKE FIELD     MOCLDY    69  65  86 E3        30.01S
VALPARAISO     MOCLDY    74  66  77 E6        30.01S
MARY ESTHER    CLOUDY    72  65  79 NE5       30.00R
TRI COUNTY     FAIR      67  64  90 CALM      30.04S
PANAMA CITY    FAIR      70  65  84 NE5       30.01S
TYNDALL AFB    CLEAR     70  66  88 CALM      30.02R
APALACHICOLA   MOCLDY    76  72  87 E7        30.01R

STATION/POSITION SKY/WX   TEMP    WIND        PRES    WAVE   SWELL
                          AIR SEA DIR/SP/G            HT/PER HT/PER
                          (F)     (DEG/KT/KT) (MB)    (FT/S) (FT/S)
30.1N   87.6W              78 80  150/  8/ 10 1015.0S   3/ 6   2/ 6
29.2N   88.2W              78 79  140/ 10/ 12 1015.1R
28.8N   86.0W              78 80   90/  8/ 10 1015.8R   2/ 5   2/ 5
PANAMA CITY BEAC           74 79   80/  5/  9 1016.6R
TOWER C                    77     120/ 14/ 16 1016.8R
28.5N   84.5W              78 78  120/ 12/ 16 1015.3R   2/ 3

$$
FLZ011-016>038-118-127-128-134-139-239-281100-
NORTH FLORIDA

CITY           SKY/WX    TMP DP  RH WIND       PRES   REMARKS
MARIANNA       MOCLDY    70  67  90 E5        30.03S
TALLAHASSEE    PTCLDY    72  66  81 NE5       30.04R
PERRY          CLEAR     66  65  94 CALM      30.05R
LIVE OAK         N/A     66  66 100 CALM      30.07R
CROSS CITY       N/A     66  63  90 CALM      30.03R
LAKE CITY      FAIR      64  64 100 CALM      30.05R
GAINESVILLE    CLEAR     64  63  96 W5        30.03R
WILLISTON      FAIR      68  66  94 CALM      30.04R
PALATKA        FAIR      63  63 100 W5        30.02R FOG
MAYPORT NAS    CLEAR     74  68  81 NE14      30.01R
JACKSONVILLE   PTCLDY    64  64 100 W5        30.02R
JAX NAS        CLEAR     76  68  76 N6        30.03R
JAX CECIL        N/A     64  64 100 W3        30.03R FOG
FERNANDINA BEA FAIR      77  70  78 NE10      30.00S
ST AUGUSTINE   CLEAR     75  69  81 NE9       30.01R
PALM COAST     PTCLDY    66  66 100 CALM      30.00R

STATION/POSITION SKY/WX   TEMP    WIND        PRES    WAVE   SWELL
                          AIR SEA DIR/SP/G            HT/PER HT/PER
                          (F)     (DEG/KT/KT) (MB)    (FT/S) (FT/S)
SHELL POINT                73      40/  3/  7 1015.6
KEATON BEACH               67      40/  4/  6 1016.7R
CEDAR KEY                  71      20/  4/  5 1017.1R
FERNANDINA                 75 79   60/  2/  4 1016.1R
30.7N   81.3W                 78                N/A     3/ 8
MAYPORT                    77 78   60/ 11/ 12 1016.0R
31.4N   80.9W              75 76   60/ 14/ 17 1016.6R   3/ 7   2/ 7
ST AUGUSTINE               76 79   40/ 13/ 14 1016.7R

$$
FLZ040-043>046-052-053-057-058-063-144-281100-
INTERIOR CENTRAL FLORIDA

CITY           SKY/WX    TMP DP  RH WIND       PRES   REMARKS
OCALA          CLEAR     64  63  94 N5        30.03R
THE VILLAGES     N/A     68  66  94 CALM      29.92R
LEESBURG       PTCLDY    69  67  93 CALM      30.02R
SANFORD        CLEAR     69  65  86 CALM      29.99R
ORLANDO EXEC   CLEAR     73  68  84 CALM      29.99R
ORLANDO INTL   PTCLDY    71  67  87 CALM      30.00R
WINTER HAVEN   CLEAR     71  68  90 NE3       30.01R
LAKELAND       CLEAR     70  68  94 CALM      30.00S
BARTOW         FAIR      72  72 100 CALM      30.01R
OKEECHOBEE       N/A     68  68 100 CALM      29.98S FOG

$$
FLZ041-047-054-059-064-141-147-281100-
EAST CENTRAL FLORIDA

CITY           SKY/WX    TMP DP  RH WIND       PRES   REMARKS
DAYTONA BEACH  PTCLDY    71  68  90 NE3       30.00R
DELAND           N/A     64  64 100 CALM      30.01S
JFK SPACE CTR  CLEAR     66  64  93 NE6       29.97R
CAPE CANAVERAL CLEAR     71  67  87 NE6       29.96S
PATRICK AFB    CLEAR     76  69  78 N7        29.97R
MELBOURNE      CLEAR     75  69  81 NE7       29.97R
VERO BEACH     CLEAR     71  68  90 CALM      29.97S
FT PIERCE      CLEAR     69  67  93 CALM      29.96S
STUART         CLEAR     73  70  88 CALM      29.98R

STATION/POSITION SKY/WX   TEMP    WIND        PRES    WAVE   SWELL
                          AIR SEA DIR/SP/G            HT/PER HT/PER
                          (F)     (DEG/KT/KT) (MB)    (FT/S) (FT/S)
28.5N   80.2W              78 79  360/  8/ 10 1014.8S
28.9N   78.5W              77 78  330/ 12/ 14 1013.4R
TRIDENT PIER               70 81   10/  3/  3 1014.8S
28.4N   80.5W                 80                N/A     3/ 7
27.5N   80.2W                 79                N/A     4/ 7

$$
FLZ050-056-061-142-242-148-248-149-249-151-251-155-255-
160-260-281100-
WEST CENTRAL FLORIDA

CITY           SKY/WX    TMP DP  RH WIND       PRES   REMARKS
CRYSTAL RIVER  FAIR      66  64  94 CALM      30.02R
INVERNESS      FAIR      66  66 100 CALM      30.03R
BROOKSVILLE    CLEAR     67  66  97 CALM      30.02R
ZEPHYRHILLS    FAIR      59  57  91 CALM      30.02R
CLEARWATER AIR FAIR      72  68  88 CALM      30.00R
ST PETE CLEARW PTCLDY    75  69  81 NE5       30.00R
TAMPA INTL     CLEAR     74  68  81 NE5       30.01R
TAMPA EXEC     CLEAR     70  68  94 CALM      30.01R
PLANT CITY     CLEAR     72  70  94 CALM      30.02R
MACDILL AFB    PTCLDY    71  69  94 N5        30.00R
PETER O KNIGHT PTCLDY    73  70  88 NE3       30.01R
ST PETERSBURG  CLEAR     76  70  82 E8        29.98R
SARASOTA       CLEAR     73  68  84 NE3       29.98R
VENICE         NOT AVBL

STATION/POSITION SKY/WX   TEMP    WIND        PRES    WAVE   SWELL
                          AIR SEA DIR/SP/G            HT/PER HT/PER
                          (F)     (DEG/KT/KT) (MB)    (FT/S) (FT/S)
27.3N   84.2W                 81                N/A     2/ 4
CLEARWATER BEACH           75 82   70/  4/  6 1015.4R
MIDDLE TAMPA BAY NOT AVBL
VENICE                     72 80   60/  5/  6 1015.1R

$$
FLZ066-069-070-075>078-162-262-165-265-281100-
SOUTHWEST FLORIDA AND KEYS

CITY           SKY/WX    TMP DP  RH WIND       PRES   REMARKS
PUNTA GORDA    CLEAR     69  67  93 NE5       30.00R
FT MYERS       CLEAR     72  71  97 E6        29.97R
SOUTHWEST INTL CLEAR     72  69  90 NE5       29.97R
NAPLES         CLEAR     72  71  97 NE3       29.96R
MARCO ISLAND   CLEAR     72  66  83 NE5       29.97R
MARATHON       CLEAR     75  69  81 CALM      29.95R
KEY WEST NAS   MOCLDY    79  70  74 SE5       29.95R
KEY WEST INTL  PTCLDY    80  70  71 SE6       29.95S

STATION/POSITION SKY/WX   TEMP    WIND        PRES    WAVE   SWELL
                          AIR SEA DIR/SP/G            HT/PER HT/PER
                          (F)     (DEG/KT/KT) (MB)    (FT/S) (FT/S)
NAPLES                        83              1014.2F
26.0N   85.6W              79 81   80/ 12/ 16 1014.7R   3/ 6   2/ 7
DRY TORTUGAS               80     100/  7/  8 1014.4R
SAND KEY                   80     140/  8/ 10 1014.5R
LONG KEY                   80 82  120/  4/  5 1014.6R

$$
FLZ067-068-071>074-168-172>174-281100-
SOUTHEAST FLORIDA

CITY           SKY/WX    TMP DP  RH WIND       PRES   REMARKS
W PALM BEACH   PTCLDY    74  70  87 NW3       29.96S
FT LAUDER-EXEC MOCLDY    75  71  87 N6        29.96R
FT LAUDERDALE  CLOUDY    76  71  85 NW3       29.95R
POMPANO BEACH  CLOUDY    73  70  90 N7        29.96R
PEMBROKE PINES RAIN      73  69  87 SW6       29.97R
OPA LOCKA      PTCLDY    76  72  87 N7        29.96S
MIAMI          PTCLDY    76  70  82 CALM      29.96R
WEST KENDALL   MOCLDY    72  71  97 CALM      29.96R
HOMESTEAD      CLEAR     74  71  89 NW1       29.95S

STATION/POSITION SKY/WX   TEMP    WIND        PRES    WAVE   SWELL
                          AIR SEA DIR/SP/G            HT/PER HT/PER
                          (F)     (DEG/KT/KT) (MB)    (FT/S) (FT/S)
PORT EVERGLADES            77     290/  5/  7 1014.3R
VIRGINIA KEY               80 82   90/  6/  7 1014.3R
LAKE WORTH                 79 80   10/  6/  9 1014.1R
FOWEY ROCKS                79 82  100/  6/  6 1014.8R
SETTLEMENT POINT           78      20/  4/  5 1015.4R

$$





USA.gov is the U.S. government's official web portal to all federal, state and local government web resources and services.